DW0218 Weather Reports


time (UTC)temp
C
wind
direction
speed
KPH
gust
KPH
rain 1hr
cm
rain 24hr
cm
rain mn
cm
humidity
%
barometer
mb
20260510161806 12 343 3.2 9.7 0.00 0.00 0.00 66 1014.0
20260510160805 12 353 3.2 9.7 0.00 0.00 0.00 67 1014.0
20260510155806 12 54 3.2 4.8 0.00 0.00 0.00 67 1015.0
20260510152805 12 0 3.2 8.0 0.00 0.00 0.00 70 1014.0
20260510145805 12 5 3.2 11.3 0.00 0.00 0.00 75 1014.0
20260510144806 12 351 3.2 9.7 0.00 0.00 0.00 78 1014.0
20260510143806 12 357 4.8 9.7 0.00 0.00 0.00 74 1014.0
20260510142805 12 7 3.2 4.8 0.00 0.00 0.00 74 1014.0
20260510141806 12 7 4.8 8.0 0.00 0.00 0.00 73 1014.0
20260510140806 12 11 3.2 8.0 0.00 0.00 0.00 73 1014.0
20260510135805 12 41 3.2 9.7 0.00 0.00 0.00 74 1014.0
20260510134805 12 358 3.2 8.0 0.00 0.00 0.00 73 1014.0
20260510133807 12 19 0.0 4.8 0.00 0.00 0.00 72 1015.0
20260510132806 12 343 1.6 8.0 0.00 0.00 0.00 66 1015.0
20260510130805 13 30 3.2 8.0 0.00 0.00 0.00 61 1015.0
20260510125805 13 34 1.6 9.7 0.00 0.00 0.00 60 1015.0
20260510124805 13 357 3.2 8.0 0.00 0.00 0.00 59 1015.0
20260510123805 14 5 3.2 11.3 0.00 0.00 0.00 60 1015.0
20260510115805 14 7 3.2 8.0 0.00 0.00 0.00 60 1015.0
20260510111805 13 353 3.2 9.7 0.00 0.00 0.00 62 1015.0
20260510104805 12 352 3.2 12.9 0.00 0.00 0.00 65 1016.0
20260510101806 12 355 1.6 9.7 0.00 0.00 0.00 64 1016.0
20260510100805 13 0 3.2 8.0 0.00 0.00 0.00 65 1017.0
20260510095805 13 354 3.2 9.7 0.00 0.00 0.00 65 1017.0
20260510092806 12 344 3.2 9.7 0.00 0.00 0.00 67 1016.0
20260510091805 12 8 4.8 12.9 0.00 0.00 0.00 68 1016.0
20260510085805 12 347 1.6 8.0 0.00 0.00 0.00 73 1016.0
20260510081805 10 22 3.2 8.0 0.00 0.00 0.00 81 1016.0
20260510075805 10 12 3.2 8.0 0.00 0.00 0.00 83 1016.0
20260510074805 10 349 3.2 11.3 0.00 0.00 0.00 84 1016.0
20260510063805 9 346 1.6 8.0 0.00 0.00 0.00 87 1016.0
20260510062805 9 3 3.2 4.8 0.00 0.00 0.00 88 1016.0
20260510055805 8 351 0.0 9.7 0.00 0.00 0.00 91 1016.0
20260510053805 8 356 1.6 8.0 0.00 0.00 0.00 91 1015.0
20260510043806 9 22 0.0 9.7 0.00 0.00 0.00 89 1016.0
20260510041804 9 0 1.6 8.0 0.00 0.00 0.00 88 1015.0
20260510040805 9 34 1.6 8.0 0.00 0.00 0.00 88 1016.0
20260510035806 9 0 1.6 8.0 0.00 0.00 0.00 87 1016.0
20260510030805 10 0 1.6 4.8 0.00 0.00 0.00 81 1016.0
20260510023805 10 335 1.6 4.8 0.00 0.00 0.00 72 1016.0
20260510022806 10 351 3.2 9.7 0.00 0.00 0.00 68 1016.0
20260510021805 10 353 1.6 4.8 0.00 0.00 0.00 66 1016.0
20260510015805 11 0 0.0 3.2 0.00 0.00 0.00 64 1016.0
20260510013805 11 0 0.0 3.2 0.00 0.00 0.00 61 1016.0
20260510010805 11 45 0.0 3.2 0.00 0.00 0.00 58 1016.0
20260510005805 11 22 0.0 3.2 0.00 0.00 0.00 59 1016.0
20260510004805 11 22 0.0 4.8 0.00 0.00 0.00 58 1016.0
20260510003806 12 33 1.6 4.8 0.00 0.00 0.00 57 1016.0
20260510002805 12 0 0.0 4.8 0.00 0.00 0.00 56 1016.0
20260510001805 12 45 0.0 9.7 0.00 0.00 0.00 53 1016.0
20260510000805 12 8 0.0 4.8 0.00 0.00 0.00 52 1016.0
20260509233805 12 0 0.0 4.8 0.00 0.00 0.00 48 1015.0
20260509231805 12 9 0.0 8.0 0.00 0.00 0.00 47 1016.0
20260509225805 12 344 1.6 4.8 0.00 0.00 0.00 47 1016.0
20260509224804 12 45 0.0 4.8 0.00 0.00 0.00 47 1016.0
20260509223805 13 0 0.0 3.2 0.00 0.00 0.00 47 1015.0
20260509220805 13 5 0.0 4.8 0.00 0.00 0.00 47 1017.0
20260509215805 13 0 0.0 3.2 0.00 0.00 0.00 48 1017.0
20260509214804 13 0 0.0 3.2 0.00 0.00 0.00 48 1017.0
20260509213804 14 0 0.0 3.2 0.00 0.00 0.00 47 1015.0
20260509212805 14 0 0.0 1.6 0.00 0.00 0.00 47 1017.0
20260509211805 14 0 0.0 3.2 0.00 0.00 0.00 47 1017.0
20260509205805 15 346 0.0 9.7 0.00 0.00 0.00 47 1017.0
20260509204805 15 0 0.0 4.8 0.00 0.00 0.00 47 1017.0
20260509202805 15 344 1.6 8.0 0.00 0.00 0.00 49 1016.0
20260509201805 15 0 0.0 3.2 0.00 0.00 0.00 50 1016.0
20260509195805 16 338 0.0 3.2 0.00 0.00 0.00 49 1015.0
20260509193806 16 0 0.0 3.2 0.00 0.00 0.00 48 1015.0
20260509190806 17 315 0.0 3.2 0.00 0.00 0.00 47 1015.0
20260509185806 17 1 0.0 4.8 0.00 0.00 0.00 46 1015.0
20260509180806 18 0 0.0 1.6 0.00 0.00 0.00 45 1015.0
20260509175806 19 0 1.6 4.8 0.00 0.00 0.00 44 1014.0
20260509174806 19 324 0.0 3.2 0.00 0.00 0.00 44 1014.0
20260509173806 19 338 1.6 4.8 0.00 0.00 0.00 44 1014.0
20260509172805 19 270 0.0 8.0 0.00 0.00 0.00 44 1014.0
20260509170806 20 338 1.6 8.0 0.00 0.00 0.00 43 1014.0
20260509162805 20 23 0.0 3.2 0.00 0.00 0.00 44 1015.0